Flag for Germany Weather past 2 weeks in Wegberg, North Rhine-Westphalia, Germany

Now
50 °F

Clear.


Feels Like: 48 °F
Forecast: 48 / 60 °F
Wind: 6 mph from Southwest

Location: Geilenkirchen Airport

Current Time: May 29, 2015 at 6:36:18 AM

Latest Report: May 29, 2015 at 5:50 AM


Visibility: 10 mi

Pressure: 29.92 "Hg

Humidity: 76%

Dew point: 43 °F

Location of WegbergLocation

Historic Weather in Wegberg — Graph

°F

Wegberg temperature yesterday

Maximum temperature yesterday: 64 °F (at 4:50 PM)
Minimum temperature yesterday: 52 °F (at 11:50 PM)
Average temperature yesterday: 59 °F

Past Weeks' High & Low Weather Summary

 TemperatureHumidityPressure
High70 °F (May 18, 3:50 PM)100% (May 15, 12:50 AM)30.36 "Hg (May 15, 12:50 AM)
Low43 °F (May 18, 3:50 AM)38% (May 18, 3:50 PM)29.68 "Hg (May 18, 5:50 PM)
Average55 °F65%30.04 "Hg
* Reported May 14 7:50 AM — May 29 4:50 AM, Wegberg, Weather by CustomWeather, © 2015

Note: Actual official high and low records may vary slightly from our data, if they occured in-between our weather recording intervals... More about our weather records

Advertising

Wegberg weather history for previous 24 hours

 ConditionsComfort  
Time TempWeatherWind HumidityBarometerVisibility
4:50 AM
Fri, May 29
50 °FClear.6 mph76%29.92 "Hg10 mi
3:50 AM52 °FPartly cloudy.6 mph72%29.95 "HgN/A
2:50 AM52 °FClear.5 mph77%29.95 "Hg10 mi
1:50 AM54 °FPartly cloudy.3 mph72%29.95 "HgN/A
12:50 AM54 °FPartly cloudy.1 mph72%29.98 "HgN/A
11:50 PM
Thu, May 28
52 °FPassing clouds.2 mph82%29.98 "HgN/A
10:50 PM54 °FPartly cloudy.1 mph77%29.98 "HgN/A
9:50 PM55 °FPartly sunny.5 mph77%29.98 "HgN/A
8:50 PM57 °FBroken clouds.5 mph72%29.95 "HgN/A
7:50 PM57 °FPartly sunny.7 mph77%29.95 "HgN/A
6:50 PM59 °FPartly sunny.13 mph72%29.95 "HgN/A
5:50 PM59 °FPartly sunny.13 mph68%29.95 "HgN/A
4:50 PM64 °FBroken clouds.18 mph56%29.95 "HgN/A
3:50 PM63 °FScattered clouds.20 mph59%29.95 "HgN/A
2:50 PM63 °FBroken clouds.17 mph64%29.95 "HgN/A
1:50 PM61 °FBroken clouds.18 mph63%29.98 "HgN/A
12:50 PM61 °FBroken clouds.18 mph55%29.98 "HgN/A
11:50 AM63 °FBroken clouds.15 mph45%29.95 "HgN/A
10:50 AM63 °FPartly sunny.16 mph52%29.95 "HgN/A
9:50 AM59 °FPartly sunny.14 mph63%29.98 "HgN/A
8:50 AM59 °FPartly sunny.13 mph63%29.98 "HgN/A
7:50 AM59 °FSunny.10 mph63%29.98 "Hg10 mi
6:50 AM57 °FBroken clouds.9 mph63%29.98 "HgN/A
Weather by CustomWeather, © 2015

See weather overviewHow to use our weather pages